Location: Grange Verzio
(44.5000°N, 6.9833°E)
Time: 18:31:47
(UTC+00:00)

Cosmos 2219 Rocket - Pass Details

Date: 03 October 2023
Orbit: 826 x 848 km, 71.0° (Epoch: 08 December)

Event Time Altitude Azimuth Distance (km) Brightness Sun altitude
Rises 17:58:48 0° 228° (SW) 3,353 6.0 -9.6°
Reaches altitude 10° 18:01:23 10° 236° (SW) 2,425 5.4 -10.0°
Maximum altitude 18:06:33 38° 304° (NW) 1,242 3.7 -10.9°
Drops below altitude 10° 18:11:46 10° 12° (NNE) 2,449 4.5 -11.9°
Sets 18:14:24 0° 21° (NNE) 3,390 5.2 -12.3°
